Weather Roundup
Issued by NWS Corpus Christi, TX

Home | Current Version | Previous Version | Text Only | Print | Product List | Glossary On
Versions: 1 2 3 4 5 6 7 8 9 10 11 12 13 14 15 16 17 18 19 20 21 22 23 24 25 26 27 28 29 30 31 32 33 34 35 36 37 38 39 40 41 42 43 44 45 46 47 48 49 50
000
ASUS44 KCRP 060810
HRRCRP

SOUTH TEXAS REGIONAL WEATHER ROUNDUP
NATIONAL WEATHER SERVICE CORPUS CHRISTI TX
200 AM CST TUE DEC 06 2016


TXZ229>244-060900-
...CORPUS CHRISTI AREA OBSERVATIONS...

CITY           SKY/WX    TMP DP  RH WIND       PRES   REMARKS
CORPUS CHRISTI CLEAR     52  51  97 SW8       29.85S
NAS CORPUS CHR CLEAR     49  32  52 SW7       29.85S
ROCKPORT         N/A    N/A N/A N/A MISG      29.85R
KINGSVILLE NAS CLEAR     49  49 100 SW6       29.86S
ALICE          CLEAR     50  49  96 SW7       29.84F
ORANGE GROVE   CLEAR     47  47 100 W7        29.85F
FALFURRIAS     PTCLDY    51  49  93 CALM      29.85F
$$

...VICTORIA AREA OBSERVATIONS...

CITY           SKY/WX    TMP DP  RH WIND       PRES   REMARKS
VICTORIA       CLEAR     48  47  96 SW5       29.85R
BEEVILLE       FAIR      46  46 100 SW5       29.84S
PLEASANTON     PTCLDY    44  43  96 W3        29.85R
SAN ANTONIO    CLEAR     44  43  96 CALM      29.83R
$$

...LAREDO AREA OBSERVATIONS...

CITY           SKY/WX    TMP DP  RH WIND       PRES   REMARKS
LAREDO         CLEAR     51  49  92 SE3       29.86S
COTULLA        CLEAR     51  47  86 S5        29.84R
DEL RIO        CLEAR     44  43  96 NE3       29.81F
MCALLEN        CLEAR     51  48  89 S3        29.88S FOG
HEBBRONVILLE   CLEAR     52  49  90 SW7       29.86S
$$

...OTHER TEXAS OBSERVATIONS...

CITY           SKY/WX    TMP DP  RH WIND       PRES   REMARKS
BROWNSVILLE    CLEAR     49  48  97 S3        29.89R
HOUSTON        MOCLDY    52  50  93 W3        29.82S
COL. STATION   CLOUDY    51  51 100 S6        29.79F FOG
AUSTIN         PTCLDY    41  41 100 S5        29.79S
WACO           CLEAR     46  46 100 S7        29.74F
FORT WORTH     CLOUDY    50  47  89 S10       29.71S
WICHITA FALLS  FOG       41  41 100 NE9       29.71R VSB 3/4
LUBBOCK        CLOUDY    41  24  51 N24G32    29.81R
EL PASO        PTCLDY    50  25  37 SW12      29.93S
$$

...MARINE OBSERVATIONS...

STATION/POSITION TIME  SKY/WX   TEMP    WIND        PRES    VSBY  WAVE   SWELL
                                AIR SEA DIR/SP/G                  HT/PER HT/PER
                 (UTC)          (F)     (DEG/KT/KT) (MB)    (MI)  (FT/S) (FT/S)
PORT ARANSAS     0800            58 63  220/ 11/ 14 1010.6R
BUOY 90 E PORT A 0750            68 77  280/ 17/ 21 1009.9S         4/ 5   2/13
BUOY 45 SE BAFFI 0750            66 76  230/ 14/ 16 1010.6R         2/ 7   2/ 7
BUOY 200 E PT IS 0750            72 79  310/ 12/ 16 1011.3R         5/ 6   3/ 6
BUOY 15 E GALVES 0750            59 67  280/ 19/ 23 1009.9R         4/ 5   2/13
$$



USA.gov is the U.S. government's official web portal to all federal, state and local government web resources and services.